[[{"header":{"parameterUnit":"m.s-1","parameterCategory":1,"la1":30.2991,"la2":30.254,"lo1":-89.0895,"lo2":-89.0444,"dy":0.0017,"dx":0.0017,"nx":28,"ny":28,"refTime":"2024-07-20T03:00:00:Z","depth":0,"parameterNumber":2,"parameterNumberName":"U-component_of_WINDS"},"data":[0,0,0,0,0,0,0,0,0,0,0,0,0,0,0,0,0,0,0,0,0,0,0,0,0,0,0,0,0,0,0,0,0,0,0,0,0,0,0,0,0,0,0,0,0,0,0,0,0,0,0,0,0,0,0,0,0,0,1.4531,1.4531,0,1.4543,1.4543,1.4544,1.4514,1.4513,1.4512,1.4511,1.4524,1.4525,1.4526,0,0,0,0,0,0,0,0,0,0,0,0,0,1.4479,1.448,1.4531,1.4531,1.4531,1.4543,1.4543,1.4544,1.4514,1.4513,1.4512,1.4511,1.4523,1.4525,1.4526,0,0,0,0,0,0,0,0,0,0,0,0,0,1.4497,1.448,1.4531,1.4518,1.4517,1.4543,1.4543,1.4544,1.4514,1.4513,1.4511,1.451,1.4523,1.4524,1.4526,1.4566,0,0,1.4532,1.4533,0,0,0,0,0,0,0,0,1.4496,1.4499,1.4519,1.4519,1.4518,1.4526,1.453,1.4551,1.4515,1.4515,1.4511,1.4509,1.4525,1.4527,1.4532,1.4566,1.4567,1.4532,1.4533,1.4534,1.4534,0,0,0,0,0,0,0,1.4495,1.4498,1.4536,1.452,1.4519,1.451,1.4512,1.4534,1.4528,1.4515,1.4513,1.4515,1.4525,1.4531,1.4532,1.4567,1.4532,1.4534,1.4535,1.4535,1.4631,1.4632,0,0,0,0,0,0,1.4496,1.4498,1.4535,1.4536,1.4503,1.4513,1.4514,1.4524,1.4528,1.4527,1.4516,1.4513,1.4528,1.453,1.4533,1.4577,1.4534,1.4536,1.4537,1.4629,1.4631,1.4633,0,0,0,0,0,0,1.4495,1.4499,1.4535,1.4516,1.452,1.4515,1.4527,1.4525,1.4531,1.4528,1.4527,1.4523,1.4527,1.453,1.4557,1.4577,1.4536,1.4538,1.4628,1.463,1.4632,1.4667,0,0,0,0,0,0,1.4493,1.4499,1.4515,1.4517,1.4521,1.456,1.4528,1.4527,1.4535,1.4531,1.4535,1.4534,1.4526,1.4555,1.4559,1.4579,1.4539,1.4626,1.4629,1.4631,1.4664,1.4671,1.4676,0,0,0,0,0,1.4491,1.4525,1.4516,1.4521,1.4541,1.4561,1.4564,1.4554,1.4537,1.4552,1.4549,1.4534,1.4574,1.4558,1.4562,1.4583,1.4625,1.4628,1.4631,1.4662,1.4669,1.4676,0,0,0,0,0,0,1.4526,1.4525,1.4515,1.455,1.4556,1.4556,1.4575,1.4563,1.4573,1.457,1.4557,1.4558,1.4587,1.4588,1.4569,1.462,1.4596,1.4601,1.4618,1.4625,1.4631,1.4629,1.4541,0,0,0,0,0,1.4538,1.4555,1.4553,1.4584,1.4587,1.4581,1.4589,1.4581,1.4586,1.4589,1.4588,1.4594,1.4607,1.4616,1.4629,1.4665,1.4664,1.4681,1.4687,1.4691,1.4695,1.4711,1.4718,1.4643,1.4643,1.4643,0,0,1.4562,1.4564,1.4575,1.4591,1.4594,1.4611,1.4583,1.4603,1.4614,1.4592,1.4616,1.4616,1.4621,1.4652,1.4665,1.4654,1.4715,1.4695,1.4699,1.47,1.4715,1.4722,1.4728,1.4646,1.4645,1.4645,0,0,1.4615,1.4619,1.4644,1.4647,1.4652,1.4647,1.4653,1.4655,1.4653,1.4678,1.466,1.4674,1.4698,1.4702,1.4707,1.4758,1.4743,1.4762,1.4791,1.4807,1.4813,1.4818,1.4834,1.484,1.4766,1.4766,1.4766,0,1.4645,1.467,1.4658,1.4678,1.4684,1.4664,1.4688,1.4692,1.4701,1.4705,1.4692,1.472,1.4722,1.4752,1.4764,1.477,1.4774,1.4761,1.4813,1.4818,1.4823,1.4838,1.4844,1.4768,1.4768,1.4768,1.4767,0,1.4705,1.4722,1.4741,1.4749,1.4758,1.478,1.4771,1.4781,1.4771,1.4767,1.4791,1.4793,1.4804,1.481,1.4802,1.4838,1.483,1.4816,1.4791,1.4832,1.4846,1.4852,1.4771,1.477,1.477,1.4769,0,0,1.4781,1.478,1.4787,1.479,1.4792,1.4805,1.4825,1.4836,1.4843,1.485,1.4865,1.4885,1.487,1.4876,1.4867,1.4881,1.4918,1.4864,1.4864,1.4872,1.4956,1.4966,1.4973,1.4909,1.491,1.4911,1.4955,0,1.4831,1.4865,1.4854,1.4889,1.4903,1.4882,1.4899,1.4902,1.4899,1.491,1.4905,1.4919,1.4899,1.4902,1.4915,1.4911,1.4935,1.4908,1.4922,1.4922,1.492,1.4981,1.4992,1.5033,1.496,1.4961,1.4962,0,1.4895,1.4902,1.4937,1.4935,1.4941,1.4956,1.4963,1.4975,1.4977,1.4973,1.4978,1.4965,1.4983,1.496,1.4983,1.4965,1.497,1.4969,1.497,1.497,1.4944,1.4981,1.5046,1.5052,1.4971,1.497,1.4969,0,1.4944,1.4963,1.4985,1.4988,1.4987,1.4998,1.4998,1.4998,1.5004,1.5011,1.5014,1.5022,1.5027,1.5033,1.5022,1.5007,1.5047,1.5023,1.5043,1.5043,1.5051,1.5051,1.5117,1.5057,1.5057,1.5057,1.5057,0,1.5,1.5022,1.5007,1.5021,1.5044,1.5031,1.5054,1.5051,1.5052,1.5064,1.5047,1.5059,1.5045,1.5055,1.5047,1.5066,1.5069,1.5065,1.5062,1.5066,1.5066,1.5068,1.5064,1.5059,1.5058,1.5058,1.5058,0,1.5059,1.505,1.5073,1.5069,1.5068,1.5085,1.5081,1.5093,1.5088,1.5103,1.5106,1.5097,1.5107,1.5098,1.5108,1.5103,1.5128,1.5122,1.5127,1.5125,1.5144,1.5142,1.5213,1.5221,1.5158,1.5158,1.5159,0,1.5095,1.5111,1.5108,1.5114,1.5115,1.5126,1.5131,1.5118,1.5125,1.5127,1.5138,1.5147,1.5153,1.5171,1.5165,1.5172,1.5165,1.519,1.5166,1.5168,1.5163,1.5162,1.5162,1.5194,1.5195,1.5196,1.5196,0,1.5158,1.5152,1.5161,1.5167,1.5174,1.5178,1.5182,1.5188,1.5174,1.5182,1.5192,1.5197,1.5206,1.5215,1.522,1.5219,1.5205,1.5204,1.5208,1.5211,1.5212,1.521,1.5138,1.5202,1.5201,1.5201,1.5201,1.52,1.5205,1.5217,1.5216,1.5226,1.5226,1.5229,1.5239,1.5234,1.5242,1.5249,1.524,1.5252,1.5252,1.5257,1.5257,1.5265,1.5255,1.5262,1.5264,1.5265,1.5267,1.5212,1.5267,1.5266,1.5266,1.5266,1.5266,0,1.5266,1.5264,1.5273,1.5276,1.5283,1.5269,1.5271,1.5278,1.5288,1.5289,1.5295,1.5305,1.5313,1.5307,1.5313,1.532,1.5314,1.5322,1.5321,1.532,1.5277,1.5272,1.5327,1.5327,1.5327,1.5327,1.5327,1.5327,1.5299,1.5317,1.5311,1.5329,1.5327,1.5338,1.534,1.5342,1.5342,1.5354,1.536,1.5356,1.5353,1.5358,1.5364,1.5362,1.5364,1.5374,1.537,1.533,1.5324,1.5318,1.5312,1.5375,1.5375,1.5412,1.5412,1.5412]},{"header":{"parameterUnit":"m.s-1","parameterCategory":1,"la1":30.2991,"la2":30.254,"lo1":-89.0895,"lo2":-89.0444,"dy":0.0017,"dx":0.0017,"nx":28,"ny":28,"refTime":"2024-07-20T03:00:00:Z","depth":0,"parameterNumber":3,"parameterNumberName":"V-component_of_WINDS"},"data":[0,0,0,0,0,0,0,0,0,0,0,0,0,0,0,0,0,0,0,0,0,0,0,0,0,0,0,0,0,0,0,0,0,0,0,0,0,0,0,0,0,0,0,0,0,0,0,0,0,0,0,0,0,0,0,0,0,0,4.7807,4.7807,0,4.7792,4.7792,4.7792,4.7735,4.7734,4.7732,4.7731,4.7716,4.7717,4.7718,0,0,0,0,0,0,0,0,0,0,0,0,0,4.7785,4.7786,4.7807,4.7807,4.7807,4.7792,4.7792,4.7792,4.7735,4.7734,4.7732,4.7731,4.7716,4.7717,4.7718,0,0,0,0,0,0,0,0,0,0,0,0,0,4.7785,4.7786,4.7807,4.7777,4.7774,4.7793,4.7792,4.7792,4.7736,4.7734,4.7732,4.773,4.7716,4.7717,4.7718,4.7765,0,0,4.7722,4.7722,0,0,0,0,0,0,0,0,4.7785,4.7786,4.7781,4.7779,4.7776,4.7764,4.7779,4.7783,4.7736,4.775,4.7731,4.7729,4.7734,4.7733,4.7735,4.7764,4.7764,4.7722,4.7723,4.7723,4.7724,0,0,0,0,0,0,0,4.7785,4.7786,4.7801,4.7781,4.7778,4.7763,4.7761,4.7779,4.7753,4.7749,4.7745,4.7744,4.7732,4.7734,4.7734,4.7763,4.7722,4.7723,4.7724,4.7724,4.7828,4.783,0,0,0,0,0,0,4.779,4.7787,4.7802,4.7801,4.7776,4.7765,4.7763,4.7769,4.7753,4.7748,4.7745,4.7741,4.7733,4.7733,4.7733,4.7785,4.7723,4.7724,4.7725,4.7826,4.7829,4.7831,0,0,0,0,0,0,4.7789,4.7791,4.7802,4.7793,4.7793,4.7768,4.7776,4.777,4.7772,4.775,4.7745,4.7752,4.7731,4.7732,4.7757,4.7784,4.7725,4.7726,4.7824,4.7827,4.783,4.7891,0,0,0,0,0,0,4.7789,4.7792,4.781,4.7793,4.7794,4.7827,4.7777,4.7771,4.7774,4.7769,4.7755,4.7751,4.773,4.7755,4.7758,4.7784,4.7727,4.7822,4.7825,4.7829,4.7886,4.7895,4.7903,0,0,0,0,0,4.7788,4.7828,4.7811,4.7813,4.7815,4.7828,4.7829,4.7803,4.7777,4.7794,4.778,4.7752,4.7781,4.7759,4.7761,4.7788,4.782,4.7824,4.7829,4.7882,4.7894,4.7903,0,0,0,0,0,0,4.7848,4.7825,4.7806,4.7841,4.7837,4.7819,4.784,4.7816,4.7819,4.7814,4.7782,4.7779,4.7809,4.7801,4.7777,4.7832,4.7795,4.7801,4.7835,4.7846,4.7854,4.7855,4.7728,0,0,0,0,0,4.7865,4.7878,4.7857,4.789,4.7889,4.7865,4.787,4.785,4.7845,4.7843,4.783,4.7826,4.7834,4.784,4.7846,4.7885,4.7881,4.7905,4.7914,4.7921,4.7925,4.7944,4.7954,4.7846,4.7846,4.7846,0,0,4.7901,4.789,4.79,4.7902,4.7896,4.791,4.7864,4.788,4.7889,4.7845,4.7868,4.7859,4.7852,4.7884,4.7897,4.7878,4.7954,4.7927,4.7933,4.7933,4.7949,4.796,4.7969,4.7849,4.7849,4.7848,0,0,4.7972,4.7966,4.7992,4.7987,4.7979,4.7963,4.7969,4.7954,4.7946,4.7968,4.7935,4.7946,4.7961,4.7956,4.7956,4.8025,4.7998,4.8028,4.8072,4.8091,4.8099,4.8106,4.8129,4.8138,4.8033,4.8033,4.8033,0,4.8017,4.8036,4.8008,4.8026,4.8027,4.7988,4.8013,4.801,4.8005,4.8006,4.7986,4.8002,4.7995,4.8024,4.8041,4.8043,4.8048,4.8028,4.81,4.8107,4.8113,4.8135,4.8143,4.8037,4.8036,4.8036,4.8035,0,4.8091,4.8104,4.8126,4.8121,4.8125,4.8147,4.8122,4.8129,4.8109,4.8095,4.8117,4.8107,4.811,4.8116,4.8097,4.8142,4.8131,4.8106,4.8068,4.8128,4.8147,4.8155,4.8042,4.804,4.8039,4.8038,0,0,4.8198,4.8177,4.8186,4.8182,4.817,4.818,4.82,4.8202,4.8208,4.8206,4.822,4.8233,4.821,4.821,4.819,4.8206,4.8259,4.8179,4.8178,4.8192,4.8306,4.8323,4.8333,4.8242,4.8244,4.8245,4.8306,0,4.8264,4.8296,4.8271,4.8307,4.8318,4.8281,4.8297,4.8292,4.8279,4.8286,4.8272,4.8281,4.825,4.825,4.8264,4.825,4.8281,4.8245,4.8254,4.8255,4.8255,4.8344,4.8362,4.842,4.8313,4.8315,4.8316,0,4.8345,4.8346,4.8382,4.8367,4.837,4.8386,4.8385,4.8393,4.8386,4.8375,4.8375,4.835,4.8368,4.8332,4.8355,4.8331,4.8333,4.8327,4.8328,4.8327,4.8287,4.8342,4.8438,4.8446,4.8327,4.8327,4.8326,0,4.8417,4.8427,4.845,4.8448,4.8431,4.8443,4.8436,4.8427,4.8429,4.8429,4.843,4.8432,4.8433,4.8435,4.8411,4.8388,4.8436,4.8399,4.8427,4.8427,4.8437,4.8436,4.8533,4.8442,4.8442,4.8442,4.8442,0,4.8492,4.8515,4.8481,4.8495,4.852,4.8492,4.8517,4.8507,4.8498,4.8509,4.8478,4.8488,4.8458,4.8465,4.8447,4.8468,4.8469,4.846,4.8454,4.8461,4.8462,4.8461,4.8456,4.8444,4.8444,4.8443,4.8443,0,4.8575,4.8554,4.8576,4.8558,4.8554,4.8573,4.8557,4.8568,4.8554,4.8567,4.8569,4.8546,4.8553,4.853,4.8534,4.8521,4.8551,4.854,4.8553,4.8549,4.8576,4.8573,4.8674,4.8685,4.8589,4.859,4.8591,0,4.8624,4.864,4.8624,4.8628,4.8623,4.8632,4.8634,4.8607,4.861,4.8602,4.8614,4.8619,4.862,4.8633,4.8616,4.8618,4.8606,4.8641,4.8606,4.8612,4.8604,4.8602,4.8603,4.8648,4.8649,4.865,4.8651,0,4.871,4.8699,4.8703,4.8703,4.8706,4.8705,4.8702,4.8708,4.8679,4.8684,4.869,4.8692,4.8695,4.8699,4.8697,4.869,4.8665,4.8662,4.8668,4.8674,4.868,4.8675,4.857,4.8659,4.8659,4.8658,4.8657,4.8657,4.8776,4.8789,4.8778,4.8784,4.8778,4.8776,4.8785,4.8772,4.8776,4.8776,4.876,4.877,4.8761,4.8756,4.8751,4.8758,4.8741,4.8751,4.8753,4.8755,4.8758,4.8681,4.8758,4.8757,4.8757,4.8757,4.8757,0,4.8859,4.8851,4.8856,4.8852,4.8856,4.8833,4.8828,4.8832,4.8841,4.8835,4.8837,4.8844,4.8847,4.8831,4.8832,4.884,4.8829,4.8841,4.8839,4.8838,4.8774,4.8768,4.885,4.885,4.885,4.885,4.885,4.885,4.8903,4.8922,4.8909,4.8925,4.8917,4.8925,4.8924,4.8921,4.8916,4.8925,4.8927,4.8917,4.8906,4.8906,4.8908,4.8903,4.8904,4.892,4.8911,4.8852,4.8843,4.8834,4.8827,4.8921,4.8921,4.8974,4.8974,4.8975]}]]